TimeCDT,TemperatureF,Dew PointF,Humidity,Sea Level PressureIn,VisibilityMPH,Wind Direction,Wind SpeedMPH,Gust SpeedMPH,PrecipitationIn,Events,Conditions,WindDirDegrees,DateUTC
12:15 AM,62.4,56.3,80,29.90,10.0,North,8.1,-,N/A,,Mostly Cloudy,10,2012-05-04 05:15:00
1:15 AM,59.9,54.3,82,29.91,10.0,NNE,5.8,-,N/A,,Scattered Clouds,20,2012-05-04 06:15:00
1:35 AM,58.3,53.6,84,29.91,10.0,NNE,6.9,-,N/A,,Scattered Clouds,20,2012-05-04 06:35:00
1:55 AM,58.5,53.6,84,29.92,10.0,NNE,6.9,-,N/A,,Scattered Clouds,30,2012-05-04 06:55:00
2:15 AM,58.5,53.6,84,29.93,10.0,NE,5.8,-,N/A,,Mostly Cloudy,40,2012-05-04 07:15:00
2:35 AM,57.6,53.6,87,29.93,10.0,NE,6.9,-,N/A,,Scattered Clouds,40,2012-05-04 07:35:00
2:55 AM,59.0,54.0,83,29.94,10.0,NE,9.2,-,N/A,,Mostly Cloudy,50,2012-05-04 07:55:00
3:15 AM,58.8,53.6,83,29.93,10.0,NE,9.2,-,N/A,,Overcast,50,2012-05-04 08:15:00
3:35 AM,57.9,53.6,86,29.93,10.0,ENE,8.1,-,N/A,,Overcast,60,2012-05-04 08:35:00
3:55 AM,57.9,53.6,86,29.95,10.0,ENE,8.1,-,N/A,,Overcast,60,2012-05-04 08:55:00
4:15 AM,57.6,53.6,87,29.95,10.0,ENE,11.5,-,N/A,,Overcast,60,2012-05-04 09:15:00
4:35 AM,57.4,53.6,87,29.96,10.0,NE,10.4,-,N/A,,Overcast,50,2012-05-04 09:35:00
4:55 AM,56.8,53.6,89,29.96,10.0,NNE,11.5,-,N/A,,Overcast,30,2012-05-04 09:55:00
5:15 AM,56.3,52.7,88,29.97,10.0,NE,13.8,-,N/A,,Overcast,50,2012-05-04 10:15:00
5:35 AM,55.6,52.2,88,29.97,10.0,NE,11.5,-,N/A,,Overcast,50,2012-05-04 10:35:00
5:55 AM,55.4,51.4,87,29.97,10.0,NE,11.5,-,N/A,,Overcast,50,2012-05-04 10:55:00
6:15 AM,55.0,50.4,84,29.98,10.0,ENE,11.5,18.4,N/A,,Overcast,60,2012-05-04 11:15:00
6:35 AM,54.9,50.0,84,29.99,10.0,NE,8.1,-,N/A,,Overcast,50,2012-05-04 11:35:00
7:15 AM,54.7,49.3,82,30.01,10.0,ENE,9.2,-,N/A,,Mostly Cloudy,60,2012-05-04 12:15:00
7:35 AM,54.5,49.3,83,30.01,10.0,ENE,8.1,-,N/A,,Mostly Cloudy,70,2012-05-04 12:35:00
7:55 AM,55.0,49.1,80,30.01,10.0,NE,11.5,-,N/A,,Scattered Clouds,40,2012-05-04 12:55:00
8:15 AM,55.6,48.9,78,30.01,10.0,NE,13.8,17.3,N/A,,Scattered Clouds,50,2012-05-04 13:15:00
8:35 AM,56.3,49.3,77,30.01,10.0,ENE,10.4,17.3,N/A,,Scattered Clouds,60,2012-05-04 13:35:00
8:55 AM,56.1,48.7,76,30.02,10.0,NE,13.8,-,N/A,,Scattered Clouds,50,2012-05-04 13:55:00
9:15 AM,56.7,48.2,73,30.02,10.0,ENE,12.7,-,N/A,,Scattered Clouds,70,2012-05-04 14:15:00
9:35 AM,57.4,48.2,71,30.03,10.0,East,13.8,17.3,N/A,,Mostly Cloudy,80,2012-05-04 14:35:00
9:55 AM,57.2,48.2,72,30.03,10.0,ENE,11.5,18.4,N/A,,Overcast,70,2012-05-04 14:55:00
10:15 AM,57.6,48.0,70,30.03,10.0,East,13.8,-,N/A,,Mostly Cloudy,80,2012-05-04 15:15:00
10:35 AM,58.3,47.3,67,30.03,10.0,East,15.0,-,N/A,,Mostly Cloudy,90,2012-05-04 15:35:00
10:55 AM,59.4,47.5,65,30.03,10.0,East,11.5,19.6,N/A,,Overcast,80,2012-05-04 15:55:00
11:15 AM,59.7,47.7,64,30.03,10.0,ESE,12.7,19.6,N/A,,Overcast,110,2012-05-04 16:15:00
11:35 AM,61.7,48.2,61,30.02,10.0,ENE,15.0,18.4,N/A,,Scattered Clouds,70,2012-05-04 16:35:00
11:55 AM,62.2,47.7,59,30.03,10.0,ENE,15.0,20.7,N/A,,Clear,60,2012-05-04 16:55:00
12:35 PM,62.6,46.2,55,30.03,10.0,East,18.4,23.0,N/A,,Mostly Cloudy,100,2012-05-04 17:35:00
12:55 PM,63.1,47.1,56,30.03,10.0,ESE,11.5,20.7,N/A,,Scattered Clouds,110,2012-05-04 17:55:00
1:15 PM,63.0,47.1,56,30.03,10.0,East,16.1,-,N/A,,Mostly Cloudy,90,2012-05-04 18:15:00
1:35 PM,63.9,48.0,56,30.03,10.0,East,16.1,19.6,N/A,,Overcast,100,2012-05-04 18:35:00
1:55 PM,64.8,48.0,55,30.03,10.0,East,13.8,21.9,N/A,,Scattered Clouds,80,2012-05-04 18:55:00
2:15 PM,64.6,47.7,54,30.04,10.0,East,9.2,19.6,N/A,,Scattered Clouds,90,2012-05-04 19:15:00
2:35 PM,64.8,48.4,55,30.04,10.0,ESE,13.8,-,N/A,,Mostly Cloudy,110,2012-05-04 19:35:00
2:55 PM,65.3,48.9,55,30.03,10.0,ESE,12.7,20.7,N/A,,Mostly Cloudy,120,2012-05-04 19:55:00
3:15 PM,65.8,49.5,55,30.04,10.0,SE,13.8,18.4,N/A,,Overcast,130,2012-05-04 20:15:00
3:55 PM,63.1,48.2,58,30.02,10.0,East,16.1,-,N/A,,Overcast,100,2012-05-04 20:55:00
4:15 PM,64.8,49.3,57,30.00,10.0,East,17.3,-,N/A,,Overcast,100,2012-05-04 21:15:00
4:35 PM,64.6,48.0,55,30.01,10.0,East,15.0,-,N/A,,Mostly Cloudy,90,2012-05-04 21:35:00
4:55 PM,63.5,47.8,57,30.01,10.0,East,17.3,21.9,N/A,,Mostly Cloudy,80,2012-05-04 21:55:00
5:15 PM,63.5,47.7,56,30.01,10.0,East,16.1,20.7,N/A,,Overcast,100,2012-05-04 22:15:00
5:35 PM,62.2,47.1,58,30.01,10.0,East,12.7,-,N/A,,Overcast,90,2012-05-04 22:35:00
5:55 PM,61.7,45.9,56,30.01,10.0,East,12.7,-,N/A,,Overcast,100,2012-05-04 22:55:00
6:15 PM,60.8,46.4,59,30.00,10.0,East,10.4,-,N/A,,Overcast,90,2012-05-04 23:15:00
6:35 PM,60.8,46.2,59,30.00,10.0,East,9.2,-,N/A,,Overcast,80,2012-05-04 23:35:00
7:15 PM,59.9,43.7,55,30.03,10.0,East,16.1,20.7,N/A,,Overcast,90,2012-05-05 00:15:00
7:35 PM,59.4,41.9,52,30.05,10.0,East,12.7,20.7,N/A,,Overcast,90,2012-05-05 00:35:00
7:55 PM,58.8,44.2,58,30.06,10.0,East,10.4,-,N/A,,Overcast,100,2012-05-05 00:55:00
8:15 PM,58.1,43.0,57,30.06,10.0,East,10.4,18.4,N/A,,Overcast,100,2012-05-05 01:15:00
8:35 PM,57.6,42.8,58,30.06,10.0,ESE,9.2,-,N/A,,Overcast,120,2012-05-05 01:35:00
8:55 PM,57.4,42.8,58,30.06,10.0,ESE,9.2,18.4,N/A,,Overcast,110,2012-05-05 01:55:00
9:15 PM,57.0,42.8,59,30.06,10.0,East,9.2,18.4,N/A,,Overcast,100,2012-05-05 02:15:00
9:35 PM,55.9,43.7,63,30.06,10.0,East,10.4,16.1,N/A,,Overcast,100,2012-05-05 02:35:00
9:55 PM,53.8,45.1,73,30.06,10.0,East,11.5,-,0.01,Rain,Light Rain,100,2012-05-05 02:55:00
10:15 PM,54.0,44.4,70,30.06,10.0,East,9.2,-,N/A,Rain,Light Rain,90,2012-05-05 03:15:00
10:35 PM,54.5,44.2,68,30.06,10.0,East,5.8,-,N/A,,Overcast,80,2012-05-05 03:35:00
10:55 PM,54.0,44.6,71,30.05,10.0,ENE,5.8,-,N/A,Rain,Light Rain,70,2012-05-05 03:55:00
11:15 PM,53.6,42.6,66,30.03,10.0,East,13.8,-,N/A,Rain,Light Rain,80,2012-05-05 04:15:00
11:35 PM,53.6,42.8,67,30.03,10.0,ENE,11.5,16.1,N/A,,Overcast,70,2012-05-05 04:35:00
11:55 PM,53.6,41.9,65,30.03,10.0,East,15.0,21.9,N/A,,Overcast,80,2012-05-05 04:55:00